星链-2565 (STARLINK-2565 )

导读

STARLINK-2565是美国SpaceX公司星链(Starlink)项目中的一颗低轨卫星互联网卫星,于2021年4月29日发射升空。它是星链星座第一代组网卫星的组成部分,星链项目旨在通过近地轨道大规模卫星组网,为全球提供高速低延迟宽带服务。STARLINK-2565运行在近地轨道,承担着区域网络覆盖与数据转发任务,助力星链实现全球互联网接入服务的拓展,截至2026年仍参与星座组网运行。

基本信息
目录编号:
48280
目录名称:
STARLINK-2565
国际标识:
2021-036E
轨道中心:
EARTH
卫星名称:
星链-2565
卫星全名:
星链-2565 (STARLINK-2565 )
卫星状态:
在轨 (已飞行1876 天)
发射日期:
2021-04-29 UTC
国别 :
美国 (US)
星等 :
--
轨道信息
数据来源 国际轨道数据
星历时间: 2026-06-18T06:51:45+0800
17小时前
查看轨道信息
半长轴: 6848.865km
偏心率: 0.0001083
轨道倾角: 53.161°
近地点辐角 85.760°
升交点赤经 354.751°
平近点角 274.352°
近地点: 469.986km
远地点: 471.47km
周期: 94.013分钟
每日圈数: 15.317043
详细信息
固有亮度:
5
最大亮度:
2.5
卫星平台:
Starlink V1.0
覆盖范围:
全球
运营商:
太空探索技术公司
运营商所在国:
美国
制造商(研发单位):
太空探索技术公司
制造商所在国:
美国
使用方式:
暂无
卫星简介
星链(Starlink)计划是由太空探索技术公司(SpaceX)提出的一个巨型低轨卫星互联网星座项目,计划在2019年至2024年间在太空搭建由约1.2万颗卫星组成的“星链”网络,其中1584颗将部署在地球上空550千米处的近地轨道,并从2020年开始工作。该卫星仍在工作。
2D轨道图
3D轨道图
轨道高度分析图
轨道倾角分析图
轨道综合分析图
查看轨道综合分析图